RH
7 7 6 6 6 6 5 5 5 5 5 5 5 4 4 4 4 4 4 4 5 5 6 7 8 8 8 8 7 8 7 8 9 8 8 7 7 7 7 10 14 17 14 19 32 35 39 43 43 44 42 42 42 41 43 46 54 62 64 66 66 65 65 62 62 62 62 63 64 62 63 64 61 57 58 56 55 55 56 60 61 60 58 60 64 66 68 64
7 7 6 6 6 6 6 5 5 5 5 5 5 5 4 4 4 4 5 5 5 4 5 5 6 7 8 7 7 7 7 8 7 8 9 8 8 8 7 8 11 14 13 21 30 31 36 40 42 43 41 39 38 40 42 44 49 55 59 63 62 64 62 60 62 62 62 63 62 62 62 64 62 57 57 58 54 52 53 56 59 59 57 58 61 64 68 65
8 8 7 6 6 6 6 5 5 5 5 5 4 4 4 4 4 4 5 5 5 5 4 4 5 6 7 8 8 8 7 7 8 13 14 13 12 11 9 8 10 12 12 19 23 26 32 35 39 40 38 37 37 38 40 43 46 46 53 59 60 61 59 57 62 63 62 62 61 62 62 64 63 56 57 59 55 51 52 53 55 58 57 57 59 62 65 65
8 8 8 7 6 5 5 5 5 5 4 5 4 4 4 4 4 4 4 5 5 5 4 5 4 4 6 7 8 8 7 8 12 15 16 15 14 13 10 8 11 10 13 20 21 24 28 31 35 36 33 34 35 36 38 41 45 45 46 54 58 57 58 59 60 62 61 61 63 62 61 63 61 56 56 59 58 56 56 53 52 55 58 58 60 61 63 63
8 8 8 8 7 6 5 5 4 5 4 4 4 4 4 4 4 4 4 5 5 5 5 4 4 5 5 6 7 8 8 9 13 15 14 14 13 12 11 10 11 10 16 22 21 23 26 29 31 31 30 30 32 33 34 38 43 45 42 46 55 56 58 59 58 59 60 60 63 62 62 63 59 56 56 59 63 62 61 56 50 54 58 60 62 61 60 60
7 7 8 8 8 7 7 6 5 5 4 4 4 4 4 4 4 4 4 4 4 5 4 4 5 6 6 5 5 6 8 8 13 14 13 12 12 12 12 11 10 12 19 22 20 22 25 27 27 28 28 29 31 30 31 35 38 43 41 42 48 54 58 58 56 57 60 61 63 63 63 61 57 57 56 60 64 61 60 56 50 51 55 59 61 61 60 58
8 7 8 8 8 8 7 7 6 5 5 4 4 4 4 3 3 3 3 3 4 4 4 5 6 6 6 5 5 8 9 8 10 12 12 12 12 12 14 13 11 15 23 21 19 21 22 24 24 25 26 27 30 29 32 34 35 40 41 41 45 51 54 54 55 56 60 62 63 62 61 57 56 58 57 58 61 57 56 54 49 49 52 56 60 60 60 59
8 8 8 8 9 9 8 8 8 6 5 5 5 5 4 4 4 3 4 3 3 4 4 6 6 7 6 6 8 9 8 8 9 10 11 12 13 13 14 14 13 19 25 20 18 17 18 20 20 21 23 25 28 30 32 32 33 36 36 38 43 49 52 52 53 55 61 62 61 60 59 58 57 58 57 55 56 54 54 52 50 50 50 52 57 60 59 59
7 7 8 8 8 8 8 8 8 7 6 5 5 5 5 4 4 3 4 3 3 4 4 6 6 7 6 7 10 8 6 7 8 9 11 12 15 15 15 14 15 22 25 19 17 16 15 16 16 17 18 22 27 29 31 30 33 35 34 35 39 44 48 50 51 53 60 63 61 59 58 58 56 55 54 52 52 51 51 50 49 50 49 50 54 58 59 57
7 7 7 7 8 8 8 8 8 8 6 5 5 5 5 4 4 4 4 4 4 4 5 7 7 8 8 8 9 7 7 7 6 10 11 10 14 15 18 18 17 23 25 20 17 14 14 14 13 15 16 20 25 28 30 29 32 35 33 34 35 39 43 47 49 52 58 61 60 59 58 57 55 54 53 51 50 49 50 49 49 50 49 50 51 55 58 57
6 6 6 7 8 8 8 9 8 8 7 6 4 4 4 4 4 4 4 5 5 5 6 7 8 8 8 10 9 6 7 6 5 10 11 11 12 14 22 24 21 24 23 21 18 14 13 12 13 14 13 17 22 25 28 28 29 32 32 32 32 34 39 43 46 49 55 58 58 58 58 57 56 53 52 51 49 49 50 49 49 49 48 49 48 51 56 56
6 6 6 6 7 8 9 9 8 8 6 6 5 4 4 3 4 4 4 5 5 6 7 7 9 8 10 11 10 7 7 6 6 9 11 11 11 14 23 27 26 25 23 21 20 16 13 12 13 13 12 15 19 22 25 25 25 28 28 29 30 32 35 40 42 46 52 56 56 57 57 56 55 54 52 50 49 49 49 49 49 48 48 48 46 47 52 54
6 6 6 6 7 8 9 8 8 8 7 6 5 4 4 3 4 3 4 5 5 6 7 9 10 10 12 11 9 9 9 6 6 8 9 10 9 12 20 27 28 27 24 21 20 18 14 13 13 12 12 13 17 20 21 23 24 23 23 24 29 30 31 35 39 44 49 53 55 56 58 55 52 53 52 49 48 48 49 48 47 46 47 47 45 44 48 50
6 6 6 6 7 8 8 8 8 7 7 6 5 4 4 3 4 4 5 5 4 7 9 10 10 12 14 11 9 10 9 7 8 8 9 10 10 12 17 24 28 28 27 22 20 19 15 13 13 13 12 11 17 19 16 21 23 23 22 23 27 27 27 31 34 39 45 50 53 54 57 56 52 52 51 49 48 48 49 48 46 46 47 47 46 44 44 46
6 6 6 7 7 8 8 8 8 7 7 6 5 5 4 4 4 5 6 5 5 8 10 9 10 14 15 11 9 9 8 8 8 8 8 10 12 14 16 22 27 27 26 24 21 19 16 15 13 12 13 10 14 16 14 18 22 23 24 22 24 24 27 31 30 34 42 47 49 52 54 55 54 53 51 49 48 47 49 48 47 47 47 47 47 45 43 43
6 6 6 7 8 8 8 8 7 6 6 6 5 5 4 4 4 5 6 6 6 8 10 9 10 15 15 10 9 10 10 9 8 8 8 8 11 15 18 22 25 25 25 24 21 19 17 15 13 12 14 12 10 12 12 14 17 22 23 20 22 22 25 30 29 30 38 43 44 48 54 56 55 54 52 50 48 47 49 50 49 49 48 47 47 47 44 42
6 6 6 7 8 9 8 8 7 6 6 6 5 5 5 5 4 6 6 5 6 9 10 10 10 14 14 9 10 11 11 10 9 8 9 8 8 14 19 23 25 25 25 24 22 20 17 15 14 12 14 14 11 10 11 12 13 17 20 20 20 21 23 28 30 29 32 38 40 45 54 57 55 54 52 50 48 48 49 51 51 51 51 49 48 48 46 42
6 6 6 8 9 9 8 7 7 6 6 6 6 5 5 5 6 6 6 6 7 10 11 10 10 15 15 9 10 10 10 10 10 9 9 8 8 13 19 23 25 23 23 23 21 20 18 15 16 15 15 14 12 11 10 11 11 13 16 18 18 21 23 25 30 29 29 34 38 42 50 55 55 54 52 50 48 48 49 50 50 51 51 50 50 49 48 45
8 8 9 10 11 10 9 8 7 6 7 6 6 6 6 7 8 8 8 8 8 9 11 10 9 11 12 9 9 9 10 10 10 9 10 9 8 14 17 21 24 22 21 21 21 20 18 18 20 18 15 13 11 11 9 10 11 10 13 16 17 21 23 23 28 29 29 33 34 39 47 51 53 53 51 51 50 48 48 48 48 49 50 51 51 50 50 48
9 9 10 12 13 11 10 9 8 7 7 7 7 8 8 8 8 8 10 9 8 8 9 9 8 8 8 8 9 9 9 10 10 11 11 10 11 14 17 19 22 21 19 19 20 20 18 22 23 18 13 12 11 11 10 10 12 12 11 14 17 19 21 22 25 27 27 30 31 35 43 49 52 52 51 51 51 49 47 48 48 48 49 50 51 51 51 51
10 9 11 13 14 13 11 10 10 9 8 8 8 9 9 9 8 9 10 9 8 9 9 9 9 8 8 9 9 9 10 10 10 11 11 13 13 15 17 18 22 21 18 20 21 20 21 23 21 16 14 14 13 12 11 9 12 13 12 14 16 18 21 21 23 25 24 27 30 32 39 46 50 50 50 49 51 49 46 47 48 48 49 50 51 51 51 52
9 10 11 13 15 14 13 12 12 11 11 11 11 11 12 12 11 11 12 10 8 9 9 9 9 9 8 10 11 11 11 10 11 10 11 15 15 19 21 19 20 20 19 21 22 22 24 21 18 18 17 16 14 13 12 10 12 14 12 12 14 15 18 20 22 24 23 25 27 30 35 41 44 47 48 47 49 50 46 47 47 47 48 49 51 50 51 52
9 10 11 13 15 15 14 14 13 13 13 14 15 14 14 14 12 12 13 12 10 9 9 9 9 10 9 11 13 11 11 10 11 11 12 14 17 22 26 22 21 22 21 21 21 21 22 18 15 19 19 17 18 16 14 13 12 12 10 10 12 13 16 19 21 23 23 23 25 28 31 34 39 44 44 44 48 51 48 47 47 46 47 48 50 50 50 51
9 9 12 13 14 15 15 14 15 15 15 16 16 14 14 14 13 13 15 13 10 10 10 10 11 11 10 11 13 12 11 11 11 11 11 14 18 21 23 23 23 23 22 21 21 20 19 15 15 19 19 19 20 18 16 13 11 11 9 9 10 12 14 18 22 23 22 22 23 25 27 29 34 38 40 41 46 52 51 48 47 46 47 48 49 49 49 49
9 10 12 13 14 15 15 15 17 17 17 17 17 16 15 15 14 15 16 14 13 13 12 12 11 11 11 11 12 12 12 11 11 12 12 14 17 17 20 25 25 23 23 22 21 21 19 16 17 18 20 22 21 17 14 13 11 9 9 9 9 12 14 17 22 23 22 22 21 23 27 29 31 34 36 39 42 47 50 49 47 47 47 48 48 49 49 49
10 11 13 14 15 16 17 18 19 18 18 19 18 16 15 16 15 16 16 14 14 15 14 13 12 12 11 11 12 13 13 13 11 12 13 14 15 16 19 24 24 23 24 23 23 22 19 17 18 19 20 22 21 17 15 13 12 10 10 9 8 11 14 16 20 21 23 23 22 24 27 28 31 33 32 36 39 42 47 50 48 47 46 47 48 48 49 48
11 13 14 16 17 18 19 20 19 19 19 19 16 16 16 16 15 16 16 15 15 17 15 15 13 13 12 12 12 14 15 15 13 13 14 14 15 15 17 21 23 23 24 25 24 21 19 18 20 20 19 21 21 19 17 15 14 11 10 10 9 9 12 14 17 19 21 23 25 27 27 27 31 32 32 35 36 38 44 48 48 47 46 47 47 47 48 48
12 14 16 18 19 20 21 20 21 21 21 18 17 17 17 16 17 18 17 17 17 18 16 15 14 13 12 12 12 13 15 15 16 17 16 15 16 15 15 18 21 22 23 26 25 21 20 19 20 21 18 19 20 18 19 18 16 13 12 14 12 9 9 10 12 16 18 23 27 27 27 28 28 28 30 32 34 37 40 44 47 45 45 46 46 46 47 47
14 16 18 20 22 23 22 22 22 23 21 19 18 19 18 18 19 19 18 18 18 17 17 16 15 14 14 13 13 13 14 14 16 18 17 17 17 16 15 17 19 21 23 24 24 26 25 21 21 23 20 19 20 21 21 21 19 16 16 16 14 11 9 8 9 13 18 24 25 24 25 28 27 25 27 28 30 34 34 38 45 45 44 46 46 45 46 47
15 18 21 23 25 26 25 25 25 24 22 21 21 21 20 20 20 20 20 20 19 17 16 16 15 15 15 14 14 14 14 14 14 15 17 16 17 17 16 17 17 19 22 24 23 25 29 27 25 24 21 20 21 23 24 23 22 20 17 17 16 14 11 9 9 10 18 23 21 21 23 26 26 23 25 28 26 28 30 33 40 43 43 45 45 45 45 46
18 21 23 26 28 28 28 29 28 25 24 23 23 22 21 21 19 20 22 21 18 17 16 17 16 16 16 15 15 14 14 15 14 15 19 18 17 18 17 19 19 18 21 25 24 23 25 27 26 25 23 22 22 24 26 26 25 23 20 18 19 19 17 15 14 14 18 20 18 18 19 24 26 20 22 27 24 24 27 31 36 40 42 44 45 45 45 46
21 24 26 28 30 30 30 30 28 26 25 23 24 25 23 22 20 20 20 18 18 18 17 17 17 16 16 16 16 15 16 16 15 16 19 20 20 19 18 21 22 21 20 23 25 25 22 21 24 27 25 23 23 24 25 27 27 24 23 21 21 23 25 23 22 21 20 17 16 16 17 20 23 18 19 24 23 22 25 27 32 37 40 42 44 44 45 46
25 28 29 31 32 32 32 30 29 28 26 25 25 25 23 24 26 23 19 17 18 18 17 17 17 17 17 17 17 16 17 18 18 17 19 20 22 20 19 20 20 23 24 25 27 28 24 20 22 27 27 23 22 23 24 26 27 25 24 25 22 24 30 28 24 23 22 18 16 16 16 18 18 14 17 21 21 20 22 25 28 31 35 40 43 43 44 45
29 31 32 33 34 34 33 31 30 29 28 27 27 26 25 26 27 25 22 20 20 18 17 17 17 17 18 18 18 17 17 19 19 21 22 23 24 22 21 21 19 22 26 27 26 26 26 25 23 24 26 23 21 22 23 26 28 26 23 25 24 23 27 27 22 21 21 19 17 16 17 17 16 14 13 15 15 16 20 23 25 26 30 36 41 43 43 44
32 33 34 35 36 36 34 32 31 30 30 29 28 27 28 29 27 25 24 23 22 21 19 19 18 18 19 18 19 18 18 19 19 21 25 27 29 27 25 23 21 22 26 28 28 27 27 27 26 25 25 25 23 22 24 28 30 29 27 27 26 24 23 23 21 20 19 18 17 18 18 15 14 14 12 12 11 13 16 19 21 23 26 32 37 41 42 42
34 35 37 38 38 38 35 34 32 32 31 29 28 28 29 30 27 25 26 25 24 23 22 23 22 21 22 21 22 21 20 20 19 20 26 28 30 31 29 25 22 23 27 30 32 33 30 28 29 30 28 27 27 25 25 28 30 31 31 30 28 25 23 22 21 20 21 22 20 19 20 16 13 12 10 10 10 11 13 16 18 19 22 28 33 37 39 39
36 38 39 41 41 38 36 35 34 33 31 28 29 30 29 29 28 27 28 26 24 24 24 26 26 24 25 25 26 24 22 24 22 23 28 30 32 33 32 28 25 23 25 29 34 36 34 32 32 32 32 32 29 25 24 25 28 31 32 32 30 28 26 24 23 22 22 23 19 17 18 18 15 13 9 8 8 9 10 13 16 17 20 24 28 32 36 37
38 39 41 43 41 38 37 37 35 33 32 30 32 32 30 30 30 29 28 27 27 27 26 28 29 28 28 29 30 28 27 29 28 27 30 33 34 36 34 32 29 25 24 28 32 34 34 34 32 30 32 34 30 27 27 27 28 31 33 33 33 32 31 30 29 26 24 22 19 16 15 16 16 14 11 8 7 7 9 11 14 16 17 21 25 29 34 36
40 41 43 43 41 39 38 38 37 35 34 34 35 33 32 32 32 30 31 30 30 31 31 32 32 32 32 32 33 31 31 33 32 31 33 35 37 37 36 34 32 28 25 28 32 33 34 35 34 32 32 33 32 31 32 30 29 31 34 34 34 34 33 33 30 27 24 23 21 19 16 16 16 14 11 11 8 8 8 9 12 15 16 19 22 27 33 35
41 43 44 44 42 40 38 39 40 39 38 38 37 36 35 35 35 33 34 34 34 34 34 33 34 35 34 33 34 35 34 34 34 34 37 38 37 38 37 35 34 31 28 29 32 32 34 37 38 39 38 34 32 32 32 32 32 33 34 34 34 34 34 34 30 25 23 22 22 22 19 18 17 14 10 9 8 8 8 9 11 14 16 17 20 26 32 34
43 45 45 45 42 39 38 41 42 41 42 41 41 41 40 39 39 39 38 37 36 36 35 35 36 36 35 35 38 39 37 37 40 41 41 40 39 40 40 36 33 33 32 34 38 38 38 38 39 43 43 35 31 32 32 34 35 35 33 31 32 33 34 34 32 28 24 22 22 22 21 18 18 15 10 8 8 7 7 8 9 11 14 16 18 24 30 33
44 45 47 45 42 40 41 43 42 43 46 46 45 46 44 43 43 43 42 40 38 37 37 37 36 37 37 37 38 40 40 42 45 46 45 45 43 43 41 34 31 33 34 40 44 42 40 40 41 43 42 38 35 35 34 33 35 35 33 30 32 36 38 37 34 31 28 25 22 23 22 20 19 17 12 9 9 7 7 8 8 9 12 14 16 22 27 32
45 46 47 46 42 41 43 45 45 47 48 47 46 46 46 47 46 45 44 42 40 39 38 38 38 40 42 39 38 40 44 45 46 46 47 48 47 43 36 31 31 33 38 44 48 44 41 41 41 39 37 39 40 36 34 34 35 36 34 33 34 38 40 40 37 35 33 29 25 25 25 22 21 18 13 9 9 9 9 9 9 9 11 13 17 23 29 31
46 46 47 45 44 43 44 46 49 51 49 47 49 49 48 48 48 47 46 44 42 41 40 41 40 41 42 40 38 41 44 44 46 47 48 50 51 45 36 32 31 33 40 48 49 45 44 45 45 41 37 40 43 40 37 37 37 39 40 39 37 37 37 38 37 37 37 34 31 29 26 24 23 20 14 10 9 9 9 9 9 10 10 12 17 24 29 32
48 48 47 45 44 44 45 46 49 53 51 50 52 53 51 50 48 48 48 45 44 44 43 43 42 41 41 41 40 43 46 47 48 49 52 52 51 47 40 34 32 35 41 43 41 42 46 49 49 46 40 39 47 50 45 41 41 43 45 42 38 37 38 37 38 39 39 36 34 33 29 26 26 23 16 12 11 9 10 12 11 10 10 13 17 22 27 30
47 48 47 45 45 45 46 46 47 52 53 53 54 54 53 53 52 50 49 48 48 46 45 45 44 43 45 46 47 50 52 51 49 51 54 54 52 51 46 38 36 37 37 35 36 42 47 47 47 49 45 44 54 62 55 47 44 45 45 42 39 39 38 39 41 41 39 39 37 36 33 30 27 24 18 15 14 14 16 17 16 14 12 13 18 22 25 27
47 48 47 47 48 48 48 48 49 52 53 54 58 58 55 55 54 53 52 51 50 47 46 47 47 47 50 53 54 55 54 53 53 53 54 55 54 55 52 46 43 41 37 37 40 43 48 46 43 45 43 41 50 59 56 49 44 42 42 41 40 39 39 41 41 41 42 43 40 39 40 36 31 26 20 17 17 17 18 18 17 15 14 13 17 22 23 23
48 49 48 49 52 50 50 49 50 54 56 57 60 60 57 55 54 55 54 52 51 50 49 50 51 51 53 54 55 55 55 56 58 59 59 59 60 60 58 55 51 47 44 44 43 43 46 46 41 40 40 38 42 50 54 53 47 40 40 40 40 39 39 41 41 40 42 42 41 43 45 42 34 28 22 19 19 18 18 18 17 16 17 16 17 21 23 23
50 50 49 50 50 49 49 48 50 57 60 59 61 61 59 57 56 56 56 54 55 55 52 52 52 55 57 55 56 58 57 55 59 63 66 67 66 65 64 61 56 52 50 47 45 44 44 43 41 41 41 39 39 44 52 55 50 42 39 40 41 40 39 38 39 39 39 40 40 41 43 40 33 28 25 23 21 18 17 19 18 18 21 21 19 21 23 24
53 53 53 52 49 47 49 50 54 59 58 58 61 62 60 61 61 59 59 57 58 60 58 55 53 56 57 55 55 57 54 51 54 59 63 66 67 67 68 66 60 57 54 50 48 46 45 45 43 40 37 35 36 41 46 51 53 48 40 40 41 41 39 37 37 37 37 38 41 41 43 40 33 30 28 25 22 20 18 19 19 18 22 23 20 21 23 27
57 57 58 54 50 49 51 53 55 59 59 58 61 60 60 64 64 61 63 62 62 64 65 60 57 57 57 55 54 57 54 49 49 50 52 57 60 63 65 66 63 60 57 54 50 46 45 45 41 38 34 30 31 39 45 48 51 49 43 42 41 41 42 39 37 38 40 43 46 47 46 43 37 33 30 26 23 22 20 20 20 20 22 24 22 22 23 27
58 58 59 57 53 51 53 55 55 57 56 55 55 54 56 62 61 60 65 67 65 67 66 63 60 59 59 60 61 60 56 48 45 45 46 47 50 52 56 58 59 60 59 56 54 51 48 44 41 39 36 30 30 37 43 49 52 48 43 42 41 41 42 40 42 50 50 48 50 49 49 48 42 36 32 28 25 23 22 22 24 24 24 24 23 24 25 26